Weather in Prilogino

Russia / Kurgan Oblast     55°28′33″N   66°23′14″E
temp.,
°C
wind,
m/s
gust,
m/s
humid.,
%
clouds,
%
prec.,
mm/h
press.,
hPa
HPBL,
m
9 may, sun
sun923:00+16ese2236100 0.0 101511
02:00+14ene3340100 0.0 101434
05:00+13ene3847100 0.0 1014134
08:00+17ene61140100 0.0 1014455
11:00+21e61030100 0.0 10141759
14:00+24e81123100 0.0 10143360
17:00+22ese71129100 0.0 10142859
20:00+19ene81336100 0.0 1016872
10 may, mon
mon1023:00+16ene7134199 0.0 1017711
02:00+14ene7124394 0.0 1018601
05:00+11ene61249100 0.0 1020529
08:00+12ene8104299 0.0 1021810
11:00+16ene8103081 0.0 10221436
14:00+18ene8924100 0.0 10231852
17:00+18ene7925100 0.0 10231855
20:00+14e353891 0.0 102588
11 may, tue
tue1123:00+11ene334441 0.0 102624
02:00+9ne22484 0.0 102714
05:00+8nne22520 0.0 102818
08:00+14nne34400 0.0 1028374
11:00+19nne44310 0.0 10281628
14:00+21n44265 0.0 10271964
17:00+22n442580 0.0 10271959
20:00+18nnw223591 0.0 102715
12 may, wed
wed1223:00+15nw3441100 0.0 102849
02:00+13nw344548 0.0 102749
05:00+11wnw33495 0.0 102843
08:00+17wnw4637100 0.0 1028342
11:00+21wnw5630100 0.0 10271129
14:00+22nw573864 0.0 10251955
17:00+19nnw4846100 0.0 1025351
20:00+17n3453100 0.0 102657
13 may, thu
thu1323:00+14nne395396 0.0 1027279
02:00+11nne3464100 0.0 102754
05:00+10nnw227171 0.0 102823
08:00+16nw345285 0.0 1028413
11:00+21nw57415 0.0 10261660
14:00+24nw683544 0.0 10242369
17:00+26nnw793111 0.0 10232671
20:00+20ne495123 0.0 1025287